Simultaneous Nadir Overpasses (SNOs) Predictions

Prediction of SNOs between NOAA-20 and METOP-C Satellite Orbit:

Table of predicted SNOs for the next 14.0 days since TLE Epoch: 3/13/2020
Index Date (NOAA-20) Time (NOAA-20) Lat,Lon (NOAA-20) SZA (NOAA-20 ) Date (METOP-C) Time (METOP-C) Lat,Lon (METOP-C) SZA (METOP-C ) Distance(km) Time Diff (sec)
1 03/22/2020 08:34:32 -73.46,-138.31 107.17 03/22/2020 08:35:38 -73.38,-135.35 107.42 94.46 66
2 03/22/2020 09:25:14 73.27, 29.44 72.61 03/22/2020 09:26:22 73.19, 31.56 72.40 68.72 68
3 03/22/2020 10:15:56 -73.17,-163.02 107.52 03/22/2020 10:17:05 -73.11,-161.29 107.69 56.42 69
4 03/22/2020 11:06:38 72.97, 4.71 72.25 03/22/2020 11:07:49 72.92, 5.64 72.13 30.62 71
5 03/22/2020 11:57:20 -72.87, 172.24 107.88 03/22/2020 11:58:33 -72.79, 172.69 108.00 17.31 73
6 03/22/2020 12:48:03 72.72, -20.13 71.95 03/22/2020 12:49:15 72.69, -20.17 71.91 3.21 72
7 03/22/2020 13:38:47 -72.72, 147.18 108.07 03/22/2020 13:39:56 -72.72, 147.20 108.09 1.06 69
8 03/22/2020 14:29:33 72.72, -45.52 71.92 03/22/2020 14:30:36 72.72, -45.44 71.91 2.38 63
9 03/22/2020 15:20:17 -72.72, 121.80 108.09 03/22/2020 15:21:18 -72.70, 121.82 108.14 3.36 61
10 03/22/2020 16:11:02 72.68, -70.79 71.85 03/22/2020 16:11:58 72.70, -70.83 71.86 3.26 56
11 03/22/2020 17:01:46 -72.68, 96.52 108.17 03/22/2020 17:02:40 -72.68, 96.44 108.18 2.51 54
12 03/22/2020 17:52:32 72.68, -96.18 71.82 03/22/2020 17:53:20 72.68, -96.21 71.82 1.09 48
13 03/22/2020 18:43:16 -72.68, 71.14 108.20 03/22/2020 18:44:01 -72.71, 71.17 108.18 3.01 45
14 03/22/2020 19:34:02 72.68,-121.56 71.80 03/22/2020 19:34:42 72.67,-121.59 71.77 2.30 40
15 03/22/2020 20:24:46 -72.69, 45.76 108.22 03/22/2020 20:25:23 -72.69, 45.79 108.23 1.10 37
16 03/22/2020 21:15:32 72.69,-146.94 71.77 03/22/2020 21:16:03 72.70,-146.86 71.77 2.79 31
17 03/22/2020 22:06:16 -72.69, 20.37 108.24 03/22/2020 22:06:45 -72.67, 20.41 108.27 2.61 29
18 03/22/2020 22:57:02 72.69,-172.32 71.75 03/22/2020 22:57:25 72.68,-172.24 71.73 3.16 23
19 03/22/2020 23:47:44 -72.64, -4.90 108.32 03/22/2020 23:48:06 -72.65, -4.97 108.32 2.35 22
20 03/23/2020 00:38:30 72.64, 162.40 71.67 03/23/2020 00:38:46 72.66, 162.38 71.68 1.55 16
21 03/23/2020 01:29:14 -72.65, -30.29 108.35 03/23/2020 01:29:28 -72.63, -30.35 108.36 2.91 14
22 03/23/2020 02:20:00 72.65, 137.02 71.65 03/23/2020 02:20:08 72.64, 137.00 71.63 1.38 8
23 03/23/2020 03:10:44 -72.65, -55.67 108.37 03/23/2020 03:10:49 -72.66, -55.63 108.36 1.74 5
24 03/23/2020 04:01:30 72.65, 111.64 71.62 03/23/2020 04:01:29 72.67, 111.72 71.63 3.41 1
25 03/23/2020 04:52:14 -72.65, -81.05 108.40 03/23/2020 04:52:11 -72.64, -81.01 108.41 2.02 3
26 03/23/2020 05:43:00 72.66, 86.25 71.60 03/23/2020 05:42:51 72.65, 86.34 71.59 3.05 9
27 03/23/2020 06:33:43 -72.61,-106.33 108.47 03/23/2020 06:33:33 -72.62,-106.39 108.46 2.52 10
28 03/23/2020 07:24:29 72.61, 60.98 71.52 03/23/2020 07:24:13 72.63, 60.96 71.54 2.31 16
29 03/23/2020 08:15:13 -72.61,-131.71 108.50 03/23/2020 08:14:55 -72.60,-131.77 108.50 2.17 18
30 03/23/2020 09:05:59 72.61, 35.59 71.50 03/23/2020 09:05:35 72.61, 35.58 71.50 0.50 24
31 03/23/2020 09:56:43 -72.61,-157.09 108.52 03/23/2020 09:56:16 -72.63,-157.04 108.50 2.57 27
32 03/23/2020 10:47:29 72.62, 10.21 71.47 03/23/2020 10:46:57 72.59, 10.20 71.45 2.97 32
33 03/23/2020 11:38:13 -72.62, 177.53 108.55 03/23/2020 11:37:38 -72.61, 177.58 108.55 1.77 35
34 03/23/2020 12:28:59 72.62, -15.17 71.45 03/23/2020 12:28:18 72.62, -15.07 71.45 3.23 41
35 03/23/2020 13:19:42 -72.57, 152.25 108.63 03/23/2020 13:19:00 -72.59, 152.20 108.59 2.98 42
36 03/23/2020 14:10:28 72.57, -40.45 71.37 03/23/2020 14:09:40 72.60, -40.45 71.41 3.15 48
37 03/23/2020 15:01:12 -72.57, 126.86 108.65 03/23/2020 15:00:22 -72.57, 126.82 108.64 1.63 50
38 03/23/2020 15:51:58 72.58, -65.83 71.34 03/23/2020 15:51:02 72.58, -65.83 71.36 0.54 56
39 03/23/2020 16:42:42 -72.58, 101.48 108.67 03/23/2020 16:41:44 -72.55, 101.44 108.68 3.15 58
40 03/23/2020 17:33:28 72.58, -91.21 71.32 03/23/2020 17:32:24 72.56, -91.21 71.32 2.08 64
41 03/23/2020 18:24:12 -72.58, 76.10 108.70 03/23/2020 18:23:05 -72.58, 76.16 108.68 1.98 67
42 03/23/2020 19:14:57 72.53,-116.49 71.24 03/23/2020 19:13:46 72.54,-116.59 71.27 3.50 71
43 03/23/2020 20:05:42 -72.59, 50.72 108.72 03/23/2020 20:04:27 -72.57, 50.78 108.73 3.08 75
44 03/23/2020 20:56:24 72.38,-141.57 71.05 03/23/2020 20:55:11 72.37,-142.28 71.09 24.01 73
45 03/23/2020 21:47:06 -72.28, 25.95 109.08 03/23/2020 21:45:54 -72.29, 24.89 109.00 35.63 72
46 03/23/2020 22:37:48 72.08,-166.35 70.69 03/23/2020 22:36:39 72.04,-168.25 70.77 65.35 69
47 03/23/2020 23:28:30 -71.98, 1.16 109.43 03/23/2020 23:27:22 -71.96, -1.07 109.31 76.75 68




NCC Satellite Simultaneous Nadir Overpasses (SNOs) Prediction Service
